Wind_Speed
33 37 39 42 43 45 47 50 59 70 79 82 83 89 102 108 108 105 103 99 95 91 86 81 80 80 78 74 67 62 58 54 52 50 49 49 46 43
23 28 33 37 39 41 44 47 53 65 73 79 79 82 91 103 107 105 103 101 97 93 87 82 79 77 77 76 73 66 63 59 52 51 49 47 45 43
14 21 27 31 34 37 40 44 49 59 68 75 77 77 83 94 104 105 103 101 98 94 89 84 78 76 75 75 74 70 65 62 57 52 50 48 47 45
8 15 21 26 29 32 36 40 45 54 64 69 74 74 76 85 96 103 103 100 98 95 91 85 80 76 74 74 73 72 68 64 60 54 50 48 47 44
7 13 17 20 24 27 31 36 41 49 59 65 71 72 71 76 87 98 102 99 97 95 92 88 82 77 75 73 73 72 69 65 62 58 54 50 47 45
8 11 14 17 20 23 27 31 37 44 54 61 67 69 68 70 78 90 100 100 97 94 92 89 84 80 76 72 71 71 69 67 65 62 59 53 47 45
7 8 10 12 15 19 23 28 33 41 49 57 64 66 65 65 69 81 93 99 98 93 91 88 83 79 76 72 70 70 69 67 65 64 60 55 50 47
6 6 7 9 13 16 19 24 30 37 46 54 61 63 62 61 63 70 83 94 97 94 91 87 82 78 76 73 71 69 67 65 65 64 62 59 54 51
5 3 5 9 12 15 17 21 27 34 42 51 58 60 60 57 57 62 73 86 93 94 92 87 83 79 75 73 72 69 65 63 63 63 62 60 57 54
3 2 6 9 12 15 17 21 25 31 39 46 53 57 57 55 54 57 64 75 85 89 90 86 83 80 77 74 71 69 67 65 63 63 62 62 60 58
4 3 8 11 13 16 18 21 24 29 36 43 50 54 55 53 51 54 59 67 74 82 85 84 83 79 76 74 72 70 68 67 65 63 63 62 62 60
5 4 9 12 14 17 19 21 24 28 34 40 46 51 53 52 49 50 55 61 68 75 80 81 80 76 75 74 72 70 69 68 66 64 63 63 62 61
7 5 9 12 15 17 19 21 23 27 32 38 42 46 50 51 48 47 51 56 63 68 71 74 75 74 74 75 74 72 70 69 67 66 64 63 62 61
9 6 9 12 15 16 18 20 23 26 30 34 39 42 46 48 47 47 49 53 57 63 66 69 69 70 71 72 74 74 72 70 68 66 64 63 62 61
11 7 9 12 14 16 18 19 21 24 27 31 34 38 42 45 46 47 50 54 57 63 66 68 68 68 67 68 71 73 73 71 70 67 64 62 61 60
15 8 8 10 13 15 17 18 20 22 24 26 29 33 37 41 44 47 51 54 59 64 67 68 69 66 65 65 69 71 72 70 69 68 66 63 61 60
20 11 7 9 12 14 16 17 18 20 21 23 25 28 31 35 39 44 49 55 61 66 68 66 66 65 62 61 65 70 71 70 67 65 65 63 61 60
27 16 8 7 10 13 14 16 17 18 19 20 22 23 26 29 33 38 44 52 60 66 69 67 66 64 61 58 60 63 67 68 67 64 62 61 61 60
36 24 12 5 7 11 14 15 16 17 18 19 20 20 21 23 26 31 38 47 56 64 70 69 66 63 60 57 57 61 63 66 66 66 64 63 62 61
42 33 21 10 3 9 13 15 16 17 18 19 19 20 20 20 21 24 30 39 49 59 68 71 68 63 59 58 56 57 60 62 64 64 64 63 61 60
42 39 32 20 8 4 11 15 16 17 18 19 20 20 20 19 19 20 24 31 40 50 61 68 68 65 61 60 57 55 56 58 59 60 61 61 59 58
39 39 37 31 20 8 4 12 17 18 20 20 21 21 21 20 19 20 22 27 34 43 52 60 65 65 63 61 57 55 54 54 56 57 57 57 55 54
36 35 35 34 29 21 8 4 14 19 21 22 22 23 23 22 21 20 22 25 31 39 46 52 58 62 63 61 59 55 53 52 54 55 55 55 54 53
Wind_Direction
235 235 236 237 236 233 228 221 216 216 216 216 216 214 211 209 208 207 208 210 212 214 216 217 218 221 224 226 227 226 223 221 219 219 220 222 225 225
229 232 234 235 234 232 227 222 216 214 214 215 215 214 212 210 207 206 207 209 211 214 216 217 218 219 222 224 226 227 226 224 223 222 222 225 226 226
226 231 234 234 233 231 226 221 215 211 211 213 213 213 212 210 207 205 206 207 209 212 214 216 217 218 220 222 225 227 226 226 226 225 225 225 228 228
228 232 234 234 233 229 224 220 215 210 208 211 212 211 212 211 208 205 204 205 208 210 213 214 215 217 219 220 223 225 225 225 226 225 224 226 228 230
249 240 236 233 230 225 222 218 214 208 206 207 210 210 210 210 209 206 203 202 206 209 212 213 215 216 217 219 221 223 224 225 225 225 225 228 231 234
271 251 240 232 225 220 218 215 211 206 203 204 208 208 208 209 209 207 205 202 204 207 211 213 215 216 217 218 219 221 222 223 225 226 227 228 230 233
280 258 239 224 215 213 212 210 208 204 201 202 205 206 206 207 207 208 207 204 202 204 208 210 212 215 215 216 217 219 220 221 223 224 225 226 229 231
285 256 225 206 198 198 200 202 202 200 199 199 202 204 205 205 207 208 208 207 203 202 204 206 209 212 213 214 215 216 217 219 221 222 223 224 227 230
302 239 194 184 182 183 185 190 194 195 196 197 200 203 204 204 206 208 210 210 207 204 204 205 208 210 213 213 214 214 215 216 217 219 220 223 225 227
344 181 168 167 169 170 174 179 185 189 191 193 198 201 202 204 206 208 209 211 211 208 206 205 206 209 211 213 213 214 215 215 216 216 218 221 223 225
22 137 155 157 159 161 165 171 177 183 186 189 194 198 200 203 206 207 208 209 211 210 208 207 206 208 210 212 213 214 214 215 215 216 217 219 222 224
39 121 148 153 155 158 161 165 171 178 182 186 191 196 199 202 205 207 207 208 208 210 210 209 208 209 209 209 211 212 213 214 215 216 217 219 222 224
47 110 143 150 153 156 159 162 168 173 178 183 188 194 198 201 204 204 203 204 206 207 209 209 209 210 210 210 211 212 213 214 215 216 218 219 223 226
47 99 138 149 154 155 157 161 165 171 176 181 187 193 198 201 203 203 201 200 201 201 202 204 205 208 210 212 213 213 213 214 215 217 218 220 222 225
44 88 130 147 153 156 156 159 163 168 174 179 186 193 198 202 204 205 202 198 196 195 196 199 202 206 210 213 214 216 217 217 217 218 219 222 224 226
41 72 122 145 152 156 157 159 163 168 173 179 186 192 199 204 207 207 205 201 196 192 192 195 198 203 207 211 214 215 216 217 219 220 221 222 224 226
37 54 103 145 156 160 162 163 165 170 174 180 187 194 200 205 209 211 209 206 200 194 190 189 192 196 200 207 212 215 217 217 218 221 223 224 226 228
33 42 70 137 163 168 169 170 171 174 177 181 187 193 199 204 207 210 211 209 205 200 193 189 189 191 194 200 207 211 214 215 217 219 221 224 226 228
32 36 46 93 163 177 179 179 179 181 182 185 188 192 197 202 206 208 209 209 207 204 198 192 189 189 190 195 203 208 212 214 215 217 218 220 223 226
31 33 36 47 128 182 189 189 189 189 189 189 190 191 194 198 201 203 204 205 206 206 203 198 193 190 191 193 199 204 207 210 212 215 217 219 221 224
29 32 34 36 46 170 196 198 198 197 196 195 194 193 193 195 197 199 200 200 201 203 204 201 197 193 192 192 194 199 203 205 209 211 214 217 220 222
27 29 32 33 35 38 196 204 204 203 202 201 199 197 196 195 195 195 195 195 197 197 199 201 200 197 194 193 193 196 201 204 206 208 210 213 217 219
24 26 28 30 32 33 31 212 210 208 206 205 204 202 199 197 194 193 193 193 192 192 193 195 198 198 196 195 195 196 199 202 205 206 207 209 211 213
Height
5281 5289 5297 5304 5311 5319 5327 5337 5349 5361 5375 5392 5407 5424 5446 5470 5493 5517 5539 5559 5577 5592 5608 5624 5639 5654 5667 5679 5691 5701 5712 5721 5729 5739 5749 5757 5764 5771
5275 5282 5288 5294 5301 5309 5317 5326 5336 5349 5364 5379 5395 5412 5431 5453 5476 5500 5523 5544 5562 5579 5595 5611 5627 5642 5655 5668 5680 5691 5702 5711 5720 5730 5739 5748 5755 5762
5274 5278 5282 5288 5294 5301 5308 5317 5327 5339 5354 5369 5385 5401 5419 5438 5461 5485 5507 5529 5548 5565 5582 5599 5615 5630 5644 5657 5669 5682 5693 5703 5713 5721 5731 5739 5746 5754
5274 5276 5279 5283 5288 5294 5301 5310 5319 5331 5346 5360 5375 5392 5409 5427 5447 5471 5493 5514 5534 5552 5569 5586 5603 5618 5632 5645 5658 5671 5683 5694 5704 5713 5722 5731 5738 5745
5274 5275 5277 5280 5284 5290 5296 5304 5313 5324 5338 5352 5367 5384 5401 5418 5437 5458 5479 5501 5520 5538 5556 5573 5590 5605 5620 5634 5646 5659 5673 5686 5697 5705 5714 5722 5730 5737
5274 5274 5275 5278 5281 5287 5293 5300 5309 5319 5332 5346 5360 5377 5393 5410 5427 5446 5466 5486 5507 5526 5544 5562 5578 5593 5608 5623 5637 5650 5662 5674 5685 5696 5706 5714 5721 5728
5273 5273 5274 5276 5279 5284 5290 5297 5306 5315 5327 5340 5355 5371 5387 5404 5419 5436 5455 5474 5494 5513 5532 5550 5568 5583 5597 5611 5624 5637 5651 5663 5675 5686 5697 5706 5714 5720
5273 5272 5274 5276 5279 5283 5289 5295 5303 5312 5323 5336 5350 5366 5382 5398 5414 5429 5446 5463 5483 5503 5520 5537 5554 5570 5585 5600 5614 5627 5640 5652 5664 5676 5687 5697 5705 5712
5272 5273 5274 5276 5280 5284 5289 5295 5302 5310 5321 5333 5347 5363 5379 5395 5410 5424 5437 5453 5470 5488 5507 5525 5542 5558 5573 5588 5602 5615 5628 5641 5654 5666 5677 5687 5696 5703
5273 5274 5275 5278 5281 5286 5291 5296 5303 5310 5320 5332 5346 5362 5376 5389 5403 5416 5430 5445 5461 5478 5496 5514 5530 5547 5561 5575 5590 5604 5617 5630 5643 5655 5666 5676 5685 5693
5276 5276 5278 5280 5284 5288 5293 5298 5305 5312 5320 5331 5344 5358 5373 5386 5398 5411 5424 5438 5453 5468 5485 5503 5519 5535 5549 5564 5578 5592 5606 5619 5632 5644 5655 5665 5674 5682
5279 5279 5281 5283 5287 5291 5296 5301 5307 5314 5322 5332 5344 5357 5370 5383 5395 5406 5418 5431 5445 5460 5475 5493 5508 5523 5537 5551 5566 5581 5594 5608 5620 5632 5644 5654 5663 5672
5283 5283 5285 5287 5291 5295 5300 5305 5310 5317 5324 5333 5344 5356 5368 5381 5392 5402 5413 5425 5438 5453 5468 5483 5498 5512 5526 5541 5555 5569 5583 5597 5609 5621 5632 5643 5654 5663
5288 5288 5290 5292 5295 5299 5304 5308 5314 5320 5327 5335 5345 5355 5366 5377 5388 5398 5408 5419 5431 5446 5460 5474 5488 5502 5516 5530 5544 5557 5571 5585 5599 5611 5623 5633 5643 5652
5293 5293 5295 5297 5300 5304 5308 5312 5317 5323 5329 5337 5345 5354 5364 5374 5384 5394 5403 5414 5425 5439 5453 5467 5480 5493 5506 5519 5533 5547 5561 5574 5588 5601 5614 5624 5634 5644
5299 5299 5300 5302 5305 5308 5312 5316 5321 5326 5331 5338 5345 5353 5361 5370 5379 5388 5398 5408 5419 5432 5445 5458 5471 5484 5497 5509 5523 5537 5551 5565 5578 5592 5604 5615 5625 5634
5306 5305 5305 5307 5310 5313 5316 5320 5324 5329 5334 5339 5345 5352 5359 5367 5374 5382 5392 5402 5412 5424 5437 5449 5462 5475 5488 5500 5512 5526 5541 5556 5570 5584 5596 5606 5615 5624
5313 5311 5311 5312 5314 5317 5320 5323 5327 5331 5335 5340 5346 5351 5357 5363 5370 5377 5384 5394 5404 5415 5428 5441 5454 5467 5480 5492 5503 5517 5531 5546 5560 5573 5585 5595 5605 5613
5322 5317 5316 5316 5317 5320 5323 5326 5329 5333 5337 5341 5346 5351 5356 5361 5366 5372 5378 5386 5396 5407 5420 5433 5446 5459 5472 5485 5495 5508 5523 5537 5550 5561 5573 5583 5593 5603
5332 5325 5321 5320 5320 5322 5325 5328 5331 5334 5338 5342 5346 5350 5355 5359 5363 5368 5373 5380 5389 5399 5412 5425 5439 5452 5466 5479 5491 5502 5515 5528 5541 5552 5562 5572 5581 5591
5341 5334 5328 5325 5323 5324 5326 5328 5331 5335 5338 5342 5346 5350 5354 5358 5362 5366 5371 5376 5383 5393 5404 5417 5431 5446 5460 5473 5484 5495 5507 5519 5531 5543 5553 5563 5572 5580
5349 5343 5337 5331 5328 5326 5326 5328 5331 5334 5338 5342 5345 5349 5353 5357 5361 5365 5369 5374 5380 5388 5398 5410 5424 5438 5451 5465 5477 5488 5501 5512 5522 5533 5543 5555 5563 5572
5355 5350 5344 5339 5334 5330 5328 5328 5330 5333 5336 5340 5344 5348 5352 5356 5360 5364 5368 5373 5378 5386 5395 5405 5418 5430 5444 5456 5469 5481 5493 5504 5515 5524 5533 5541 5550 5558